BEIDOU-3 M28 (C50)

Last updated on Mon Jun 22 2026 00:03:31 GMT+0000 (Coordinated Universal Time)

1 58654U 23207A 26172.05798505 -.00000081 00000+0 00000+0 0 9997 2 58654 55.7561 62.1723 0003138 350.0414 9.9905 1.86229753 16914
UTC large
Height (km)
Speed (km/s)
/
Latitude / Longitude
Inclination (degrees)
Orbital Period (minutes)
Azimuth
Elevation
Range (km)
Doppler Factor

Next 0 passes for location: London (51.5072 / 0.1276)

No passes found over London.
BEIDOU-3 M28 (C50)